[[{"header":{"parameterUnit":"m.s-1","parameterCategory":1,"la1":30.2991,"la2":30.254,"lo1":-89.0895,"lo2":-89.0444,"dy":0.0017,"dx":0.0017,"nx":28,"ny":28,"refTime":"2024-03-24T21:00:00:Z","depth":0,"parameterNumber":2,"parameterNumberName":"U-component_of_WINDS"},"data":[0,0,0,0,0,0,0,0,0,0,0,0,0,0,0,0,0,0,0,0,0,0,0,0,0,0,0,0,0,0,0,0,0,0,0,0,0,0,0,0,0,0,0,0,0,0,0,0,0,0,0,0,0,0,0,0,0,0,-5.9332,-5.9333,0,-5.9422,-5.9423,-5.9424,-5.9398,-5.9396,-5.9395,-5.9393,-5.9482,-5.9486,-5.949,0,0,0,0,0,0,0,0,0,0,0,0,0,-5.9136,-5.914,-5.9332,-5.9333,-5.9334,-5.9421,-5.9423,-5.9424,-5.9399,-5.9396,-5.9394,-5.9392,-5.9481,-5.9485,-5.949,0,0,0,0,0,0,0,0,0,0,0,0,0,-5.9223,-5.9141,-5.9331,-5.9332,-5.9333,-5.9421,-5.9423,-5.9424,-5.9399,-5.9396,-5.9394,-5.9391,-5.9479,-5.9485,-5.9491,-5.9583,0,0,-5.951,-5.9512,0,0,0,0,0,0,0,0,-5.9218,-5.923,-5.9331,-5.9332,-5.9333,-5.9396,-5.9386,-5.9477,-5.94,-5.9374,-5.9393,-5.939,-5.9455,-5.9463,-5.9486,-5.9588,-5.9591,-5.951,-5.9514,-5.9517,-5.9518,0,0,0,0,0,0,0,-5.9212,-5.9226,-5.9367,-5.9332,-5.9334,-5.9327,-5.9336,-5.9403,-5.9429,-5.9376,-5.9374,-5.9385,-5.9455,-5.948,-5.9488,-5.9593,-5.951,-5.9515,-5.9519,-5.9522,-5.9774,-5.9777,0,0,0,0,0,0,-5.9206,-5.9221,-5.9364,-5.937,-5.9268,-5.9333,-5.9343,-5.9379,-5.9428,-5.9433,-5.9388,-5.9384,-5.9471,-5.9481,-5.9491,-5.9601,-5.9516,-5.9522,-5.9526,-5.9771,-5.9774,-5.9778,0,0,0,0,0,0,-5.9201,-5.9219,-5.9361,-5.9295,-5.9313,-5.9339,-5.9379,-5.9382,-5.9406,-5.9437,-5.9441,-5.9408,-5.9469,-5.9482,-5.9561,-5.9604,-5.9525,-5.953,-5.9767,-5.9772,-5.9776,-5.9822,0,0,0,0,0,0,-5.9196,-5.9217,-5.9253,-5.9296,-5.9316,-5.9429,-5.9382,-5.9385,-5.9417,-5.9413,-5.9457,-5.9462,-5.9468,-5.9552,-5.9567,-5.9611,-5.9535,-5.9763,-5.9769,-5.9775,-5.9817,-5.9828,-5.9837,0,0,0,0,0,-5.9189,-5.9262,-5.9255,-5.9272,-5.9362,-5.9432,-5.9443,-5.945,-5.9421,-5.9456,-5.9476,-5.9461,-5.9598,-5.956,-5.9577,-5.9623,-5.976,-5.9768,-5.9774,-5.9812,-5.9826,-5.9837,0,0,0,0,0,0,-5.9221,-5.9267,-5.926,-5.9349,-5.9387,-5.9427,-5.9472,-5.9464,-5.951,-5.9504,-5.9509,-5.9519,-5.9599,-5.962,-5.9577,-5.9715,-5.9675,-5.9685,-5.9698,-5.9711,-5.9721,-5.9713,-5.954,0,0,0,0,0,-5.9239,-5.9293,-5.933,-5.9405,-5.9425,-5.9446,-5.9476,-5.9479,-5.9517,-5.9533,-5.9558,-5.9596,-5.9647,-5.9681,-5.973,-5.9821,-5.9829,-5.9861,-5.9871,-5.988,-5.9887,-5.9936,-5.995,-5.98,-5.98,-5.98,0,0,-5.9276,-5.9308,-5.9341,-5.9413,-5.9442,-5.9497,-5.9459,-5.9519,-5.9559,-5.9542,-5.9616,-5.9637,-5.9679,-5.9764,-5.9803,-5.9783,-5.9931,-5.9888,-5.9895,-5.9898,-5.9944,-5.9959,-5.9971,-5.9805,-5.9804,-5.9803,0,0,-5.9369,-5.94,-5.9465,-5.9496,-5.9542,-5.9556,-5.9571,-5.9614,-5.9627,-5.9703,-5.9691,-5.9739,-5.9828,-5.9858,-5.9885,-5.9993,-5.998,-6.0009,-6.006,-6.0108,-6.0119,-6.013,-6.0166,-6.0179,-6.0018,-6.0018,-6.0018,0,-5.9408,-5.9491,-5.95,-5.9561,-5.9592,-5.9581,-5.9646,-5.9676,-5.9735,-5.9756,-5.9734,-5.9846,-5.9874,-5.9965,-5.9991,-6.0014,-6.0031,-6.0002,-6.0117,-6.0128,-6.0138,-6.0172,-6.0186,-6.0021,-6.0021,-6.002,-6.002,0,-5.9536,-5.9594,-5.9641,-5.9699,-5.9736,-5.9799,-5.9816,-5.9853,-5.9853,-5.9869,-5.9946,-5.998,-6.0035,-6.0058,-6.0058,-6.0149,-6.0135,-6.0116,-6.0075,-6.0155,-6.0187,-6.0201,-6.0025,-6.0024,-6.0023,-6.0023,0,0,-5.9649,-5.9713,-5.973,-5.9756,-5.9806,-5.9851,-5.9914,-5.9969,-5.9999,-6.0041,-6.0092,-6.0169,-6.0151,-6.0182,-6.0186,-6.0228,-6.0309,-6.0203,-6.0204,-6.0219,-6.0409,-6.0421,-6.0437,-6.0302,-6.0305,-6.0307,-6.0405,0,-5.9745,-5.9856,-5.9866,-5.9964,-6.0017,-6.0009,-6.0063,-6.01,-6.0117,-6.0164,-6.0183,-6.0236,-6.021,-6.0228,-6.027,-6.029,-6.0347,-6.0284,-6.0348,-6.035,-6.0334,-6.0454,-6.0467,-6.0557,-6.0418,-6.042,-6.0422,0,-5.9871,-5.9918,-6.0021,-6.0065,-6.0087,-6.0136,-6.0187,-6.0233,-6.0274,-6.0284,-6.032,-6.0318,-6.0382,-6.0342,-6.0429,-6.0386,-6.0413,-6.0427,-6.0431,-6.0434,-6.0388,-6.0457,-6.0587,-6.0599,-6.0442,-6.0441,-6.0439,0,-5.994,-6.0029,-6.0102,-6.0125,-6.0178,-6.0213,-6.0236,-6.0275,-6.0308,-6.0353,-6.0374,-6.0426,-6.0454,-6.0494,-6.0506,-6.0476,-6.0592,-6.0553,-6.06,-6.06,-6.0622,-6.0619,-6.0754,-6.0645,-6.0645,-6.0645,-6.0644,0,-6.0044,-6.0107,-6.0134,-6.0178,-6.0249,-6.0261,-6.033,-6.0352,-6.0387,-6.0436,-6.0433,-6.0478,-6.0493,-6.0541,-6.0551,-6.0621,-6.0634,-6.0642,-6.0643,-6.0641,-6.0639,-6.0656,-6.0648,-6.0648,-6.0648,-6.0647,-6.0646,0,-6.0131,-6.0152,-6.0231,-6.0276,-6.0288,-6.0338,-6.0376,-6.0419,-6.0436,-6.0498,-6.0513,-6.054,-6.0596,-6.0614,-6.0681,-6.0688,-6.0768,-6.0766,-6.0754,-6.0753,-6.0798,-6.0793,-6.0945,-6.0965,-6.0846,-6.0847,-6.0848,0,-6.0195,-6.0243,-6.0293,-6.0326,-6.0351,-6.0404,-6.0437,-6.0452,-6.0487,-6.0538,-6.0575,-6.0631,-6.0676,-6.0766,-6.0791,-6.0843,-6.0839,-6.089,-6.0847,-6.0842,-6.0837,-6.0832,-6.0836,-6.0896,-6.0897,-6.0898,-6.0899,0,-6.0304,-6.0312,-6.0361,-6.0414,-6.0454,-6.0497,-6.0537,-6.0564,-6.0584,-6.0624,-6.0682,-6.0717,-6.0787,-6.0841,-6.0894,-6.0918,-6.0911,-6.0913,-6.0926,-6.0922,-6.0912,-6.0915,-6.0773,-6.0909,-6.0908,-6.0907,-6.0907,-6.0906,-6.0379,-6.0422,-6.0464,-6.0518,-6.0551,-6.0589,-6.0631,-6.0655,-6.0704,-6.0762,-6.0768,-6.083,-6.0871,-6.0941,-6.0968,-6.1016,-6.1001,-6.1021,-6.1025,-6.1029,-6.1031,-6.0908,-6.1026,-6.1026,-6.1026,-6.1025,-6.1025,0,-6.0486,-6.0513,-6.0564,-6.0621,-6.0664,-6.0657,-6.0702,-6.0738,-6.0792,-6.0832,-6.0877,-6.0943,-6.0997,-6.1027,-6.1081,-6.1113,-6.1112,-6.1127,-6.1123,-6.1128,-6.1042,-6.1024,-6.1127,-6.1127,-6.1127,-6.1127,-6.1127,-6.1127,-6.0547,-6.0617,-6.0631,-6.0718,-6.0745,-6.0806,-6.0832,-6.0867,-6.0898,-6.0972,-6.1017,-6.1038,-6.1073,-6.1129,-6.1178,-6.1186,-6.1204,-6.122,-6.1226,-6.1145,-6.1134,-6.1124,-6.1107,-6.1225,-6.1225,-6.1307,-6.1308,-6.1308]},{"header":{"parameterUnit":"m.s-1","parameterCategory":1,"la1":30.2991,"la2":30.254,"lo1":-89.0895,"lo2":-89.0444,"dy":0.0017,"dx":0.0017,"nx":28,"ny":28,"refTime":"2024-03-24T21:00:00:Z","depth":0,"parameterNumber":3,"parameterNumberName":"V-component_of_WINDS"},"data":[0,0,0,0,0,0,0,0,0,0,0,0,0,0,0,0,0,0,0,0,0,0,0,0,0,0,0,0,0,0,0,0,0,0,0,0,0,0,0,0,0,0,0,0,0,0,0,0,0,0,0,0,0,0,0,0,0,0,4.6301,4.6301,0,4.6327,4.6328,4.6328,4.6275,4.6273,4.6272,4.627,4.6297,4.63,4.6302,0,0,0,0,0,0,0,0,0,0,0,0,0,4.6205,4.6207,4.6301,4.6301,4.6301,4.6327,4.6328,4.6328,4.6275,4.6273,4.6271,4.6269,4.6297,4.6299,4.6302,0,0,0,0,0,0,0,0,0,0,0,0,0,4.6241,4.6208,4.6301,4.6278,4.6276,4.6327,4.6328,4.6328,4.6276,4.6273,4.6271,4.6268,4.6296,4.6299,4.6303,4.6377,0,0,4.6313,4.6315,0,0,0,0,0,0,0,0,4.6239,4.6244,4.6281,4.628,4.6278,4.6295,4.6304,4.6344,4.6276,4.6276,4.627,4.6267,4.6299,4.6302,4.6313,4.6378,4.6379,4.6314,4.6316,4.6317,4.6318,0,0,0,0,0,0,0,4.6237,4.6243,4.6311,4.6282,4.628,4.6267,4.6269,4.6312,4.6302,4.6276,4.6272,4.6276,4.6297,4.6309,4.6313,4.6379,4.6314,4.6317,4.6319,4.632,4.6509,4.6512,0,0,0,0,0,0,4.6237,4.6241,4.631,4.6312,4.6252,4.6271,4.6273,4.6292,4.6301,4.63,4.6278,4.6273,4.6305,4.6309,4.6314,4.6402,4.6317,4.6321,4.6323,4.6506,4.651,4.6513,0,0,0,0,0,0,4.6235,4.6243,4.6309,4.6276,4.6283,4.6275,4.6297,4.6294,4.6306,4.6303,4.6301,4.6292,4.6303,4.6309,4.6362,4.6402,4.6322,4.6325,4.6503,4.6507,4.6511,4.6579,0,0,0,0,0,0,4.6232,4.6243,4.6271,4.6277,4.6285,4.6357,4.6299,4.6297,4.6312,4.6306,4.6315,4.6314,4.6301,4.6357,4.6365,4.6406,4.6328,4.6499,4.6505,4.651,4.6573,4.6585,4.6596,0,0,0,0,0,4.6229,4.6288,4.6272,4.6281,4.6319,4.6359,4.6364,4.6347,4.6316,4.6344,4.6342,4.6314,4.6397,4.6363,4.6372,4.6414,4.6496,4.6503,4.6509,4.6568,4.6583,4.6595,0,0,0,0,0,0,4.6286,4.6288,4.6271,4.6333,4.6347,4.635,4.6385,4.6363,4.6385,4.6379,4.6358,4.636,4.6418,4.6421,4.6383,4.6487,4.6441,4.645,4.6483,4.6497,4.6508,4.6506,4.6331,0,0,0,0,0,4.6306,4.6338,4.6338,4.6394,4.6401,4.6392,4.6409,4.6395,4.6408,4.6413,4.6415,4.6429,4.6458,4.6477,4.6504,4.6574,4.6576,4.6607,4.6618,4.6628,4.6635,4.6674,4.6689,4.6534,4.6534,4.6534,0,0,4.6348,4.6353,4.6374,4.6405,4.6414,4.6448,4.6397,4.6435,4.646,4.6419,4.6469,4.6472,4.6486,4.6548,4.6576,4.6552,4.6679,4.6636,4.6643,4.6646,4.6682,4.6697,4.671,4.6539,4.6538,4.6537,0,0,4.6441,4.6448,4.6495,4.6505,4.6519,4.6513,4.6525,4.6532,4.6532,4.6583,4.6553,4.6583,4.6633,4.6645,4.6658,4.6758,4.6734,4.6767,4.6826,4.6864,4.6876,4.6887,4.6924,4.6937,4.6775,4.6775,4.6775,0,4.649,4.654,4.6522,4.6563,4.6578,4.6543,4.6592,4.6602,4.6625,4.6636,4.661,4.6674,4.6681,4.6746,4.6771,4.6782,4.6795,4.6766,4.6876,4.6886,4.6896,4.6931,4.6945,4.6779,4.6779,4.6778,4.6778,0,4.6602,4.6637,4.6674,4.6697,4.6716,4.6761,4.675,4.6772,4.6758,4.6755,4.6808,4.6815,4.6843,4.6858,4.6843,4.6922,4.6907,4.6879,4.6832,4.6915,4.6948,4.6961,4.6785,4.6784,4.6782,4.6781,0,0,4.673,4.6744,4.6758,4.6769,4.6783,4.681,4.6854,4.6882,4.6902,4.6919,4.6955,4.7,4.6974,4.6989,4.6976,4.7009,4.709,4.6977,4.6977,4.6998,4.7179,4.7201,4.7216,4.7074,4.7077,4.7079,4.7178,0,4.6823,4.6898,4.6884,4.6958,4.6991,4.696,4.6998,4.7011,4.701,4.7039,4.7037,4.707,4.7033,4.7042,4.7074,4.7074,4.7126,4.7066,4.7109,4.7111,4.7107,4.7233,4.7256,4.7349,4.719,4.7193,4.7194,0,4.6942,4.6964,4.7041,4.7052,4.7065,4.71,4.7125,4.7153,4.7168,4.7165,4.7182,4.7164,4.7208,4.7162,4.7223,4.7183,4.72,4.7203,4.7206,4.721,4.7158,4.7241,4.7378,4.7393,4.7214,4.7212,4.7211,0,4.7029,4.7079,4.7131,4.7142,4.7155,4.718,4.7187,4.7199,4.7218,4.7241,4.7253,4.728,4.7295,4.7318,4.7307,4.7274,4.7372,4.7324,4.7371,4.7372,4.7393,4.7392,4.7536,4.7403,4.7403,4.7403,4.7403,0,4.7135,4.7184,4.7171,4.7204,4.7258,4.7242,4.7296,4.7299,4.7311,4.7345,4.7319,4.7351,4.7335,4.7366,4.7358,4.7412,4.7418,4.7418,4.7415,4.7421,4.7421,4.7432,4.7425,4.7407,4.7406,4.7405,4.7404,0,4.7242,4.7235,4.7291,4.73,4.7303,4.7343,4.735,4.7382,4.7379,4.7422,4.7431,4.7428,4.7463,4.7455,4.7494,4.7489,4.7556,4.7545,4.7551,4.7549,4.7598,4.7594,4.7754,4.7775,4.7628,4.7629,4.763,0,4.731,4.7347,4.736,4.7381,4.739,4.7423,4.7442,4.7428,4.7449,4.7471,4.75,4.7533,4.7559,4.7618,4.7619,4.7649,4.7639,4.7693,4.7643,4.7648,4.7641,4.7639,4.7644,4.7703,4.7705,4.7706,4.7707,0,4.7432,4.7428,4.7456,4.7484,4.7508,4.7529,4.7548,4.7567,4.7555,4.758,4.7616,4.7637,4.7677,4.7711,4.774,4.7747,4.7726,4.7723,4.7736,4.7742,4.7744,4.7745,4.7579,4.7719,4.7718,4.7717,4.7716,4.7716,4.7522,4.7554,4.7569,4.7602,4.7615,4.7634,4.7665,4.7667,4.7697,4.7729,4.7719,4.7761,4.7777,4.7812,4.7824,4.7857,4.7836,4.7855,4.7859,4.7864,4.7871,4.7739,4.7862,4.7861,4.7861,4.7861,4.786,0,4.7644,4.7653,4.7683,4.7711,4.7738,4.7716,4.7736,4.776,4.7797,4.7814,4.7841,4.7883,4.7917,4.7921,4.7953,4.7979,4.797,4.7988,4.7986,4.7989,4.7887,4.7873,4.7995,4.7995,4.7995,4.7995,4.7995,4.7995,4.7711,4.7764,4.7762,4.7823,4.783,4.7871,4.7885,4.7903,4.7917,4.7966,4.7993,4.7996,4.8009,4.8042,4.8072,4.8072,4.8086,4.8108,4.8105,4.8009,4.7996,4.7983,4.797,4.811,4.811,4.8204,4.8205,4.8206]}]]